[[{"header":{"parameterUnit":"m.s-1","parameterCategory":1,"la1":30.2991,"la2":30.254,"lo1":-89.0895,"lo2":-89.0444,"dy":0.0017,"dx":0.0017,"nx":28,"ny":28,"refTime":"2026-02-03T09:00:00:Z","depth":0,"parameterNumber":2,"parameterNumberName":"U-component_of_WINDS"},"data":[0,0,0,0,0,0,0,0,0,0,0,0,0,0,0,0,0,0,0,0,0,0,0,0,0,0,0,0,0,0,0,0,0,0,0,0,0,0,0,0,0,0,0,0,0,0,0,0,0,0,0,0,0,0,0,0,0,0,1.6521,1.6522,0,1.6559,1.656,1.656,1.6549,1.6548,1.6547,1.6547,1.6587,1.6589,1.6591,0,0,0,0,0,0,0,0,0,0,0,0,0,1.6439,1.6441,1.6521,1.6522,1.6522,1.6559,1.656,1.656,1.6549,1.6548,1.6547,1.6546,1.6587,1.6589,1.6591,0,0,0,0,0,0,0,0,0,0,0,0,0,1.6476,1.6441,1.6521,1.6521,1.6521,1.6559,1.656,1.6561,1.6549,1.6548,1.6547,1.6546,1.6586,1.6589,1.6591,1.6632,0,0,1.66,1.6601,0,0,0,0,0,0,0,0,1.6474,1.6479,1.652,1.6521,1.6521,1.6548,1.6546,1.6585,1.655,1.6539,1.6547,1.6545,1.6575,1.6579,1.6589,1.6634,1.6636,1.66,1.6602,1.6603,1.6604,0,0,0,0,0,0,0,1.6471,1.6477,1.6536,1.6521,1.6522,1.6519,1.6523,1.6553,1.6563,1.654,1.6539,1.6544,1.6575,1.6586,1.659,1.6636,1.66,1.6602,1.6604,1.6605,1.6718,1.6719,0,0,0,0,0,0,1.6468,1.6475,1.6535,1.6537,1.6494,1.6522,1.6526,1.6541,1.6563,1.6565,1.6545,1.6543,1.6582,1.6586,1.6591,1.6641,1.6603,1.6605,1.6607,1.6716,1.6718,1.672,0,0,0,0,0,0,1.6467,1.6474,1.6534,1.6506,1.6514,1.6524,1.6541,1.6542,1.6553,1.6567,1.6569,1.6554,1.6581,1.6587,1.6622,1.6642,1.6607,1.6609,1.6715,1.6717,1.6719,1.674,0,0,0,0,0,0,1.6464,1.6473,1.6488,1.6507,1.6515,1.6564,1.6542,1.6544,1.6558,1.6556,1.6576,1.6578,1.6581,1.6618,1.6625,1.6645,1.6611,1.6713,1.6716,1.6718,1.6737,1.6742,1.6747,0,0,0,0,0,1.6461,1.6493,1.6489,1.6497,1.6534,1.6565,1.657,1.6572,1.6559,1.6575,1.6584,1.6577,1.6639,1.6622,1.6629,1.6651,1.6712,1.6715,1.6718,1.6735,1.6741,1.6746,0,0,0,0,0,0,1.6477,1.6495,1.6491,1.653,1.6546,1.6563,1.6582,1.6578,1.6598,1.6596,1.6599,1.6603,1.6639,1.6648,1.6629,1.6691,1.6673,1.6678,1.6684,1.669,1.6694,1.6691,1.6614,0,0,0,0,0,1.6485,1.6508,1.6523,1.6555,1.6563,1.6572,1.6585,1.6585,1.6602,1.6609,1.662,1.6637,1.666,1.6676,1.6698,1.6739,1.6743,1.6757,1.6762,1.6765,1.6769,1.6792,1.6799,1.673,1.673,1.6729,0,0,1.6502,1.6514,1.6529,1.6558,1.6571,1.6595,1.6577,1.6603,1.6621,1.6613,1.6647,1.6656,1.6675,1.6713,1.673,1.6722,1.679,1.6769,1.6772,1.6774,1.6796,1.6803,1.6808,1.6732,1.6731,1.6731,0,0,1.6544,1.6556,1.6584,1.6597,1.6616,1.6622,1.6628,1.6646,1.6652,1.6686,1.668,1.6702,1.6741,1.6755,1.6768,1.6816,1.6811,1.6823,1.6847,1.6869,1.6875,1.688,1.6897,1.6903,1.6827,1.6827,1.6827,0,1.6562,1.6598,1.66,1.6626,1.664,1.6633,1.6662,1.6675,1.67,1.671,1.67,1.675,1.6762,1.6804,1.6816,1.6826,1.6834,1.6821,1.6874,1.6879,1.6883,1.69,1.6907,1.6829,1.6828,1.6828,1.6828,0,1.6619,1.6644,1.6665,1.669,1.6705,1.6733,1.674,1.6756,1.6755,1.6762,1.6796,1.6811,1.6836,1.6846,1.6846,1.6888,1.6882,1.6873,1.6855,1.6891,1.6907,1.6913,1.6831,1.683,1.683,1.6829,0,0,1.6672,1.6698,1.6706,1.6717,1.6738,1.6757,1.6785,1.6809,1.6823,1.6841,1.6864,1.6898,1.689,1.6904,1.6905,1.6925,1.6963,1.6913,1.6914,1.6922,1.7011,1.7018,1.7025,1.6959,1.6961,1.6962,1.7009,0,1.6717,1.6765,1.6768,1.6812,1.6835,1.683,1.6854,1.687,1.6877,1.6898,1.6906,1.693,1.6917,1.6926,1.6945,1.6954,1.6981,1.6951,1.6982,1.6983,1.6977,1.7033,1.704,1.7085,1.7015,1.7016,1.7017,0,1.6775,1.6794,1.6841,1.6859,1.6869,1.689,1.6913,1.6933,1.6951,1.6955,1.6971,1.6969,1.6999,1.6979,1.702,1.6999,1.7012,1.7019,1.7021,1.7024,1.7002,1.7038,1.7099,1.7105,1.7027,1.7026,1.7025,0,1.6809,1.6847,1.688,1.689,1.6912,1.6927,1.6937,1.6954,1.6968,1.6988,1.6998,1.7021,1.7034,1.7052,1.7058,1.7043,1.7098,1.7079,1.7102,1.7102,1.7114,1.7114,1.7178,1.7122,1.7122,1.7122,1.7122,0,1.6858,1.6887,1.6896,1.6916,1.6948,1.6951,1.6983,1.6992,1.7007,1.7029,1.7026,1.7047,1.7053,1.7075,1.7079,1.7112,1.7118,1.7123,1.7123,1.7123,1.7122,1.7132,1.7129,1.7124,1.7124,1.7123,1.7123,0,1.6902,1.6909,1.6944,1.6962,1.6967,1.699,1.7006,1.7026,1.7032,1.7061,1.7067,1.7078,1.7104,1.7111,1.7143,1.7146,1.7185,1.7183,1.7178,1.7179,1.7201,1.7199,1.7274,1.7284,1.7222,1.7223,1.7223,0,1.6933,1.6955,1.6975,1.699,1.7,1.7024,1.7039,1.7043,1.7059,1.7081,1.7098,1.7124,1.7144,1.7187,1.7198,1.7222,1.722,1.7245,1.7224,1.7223,1.7221,1.722,1.7222,1.7249,1.725,1.725,1.7251,0,1.6987,1.699,1.7011,1.7034,1.7052,1.707,1.7088,1.71,1.7107,1.7125,1.7151,1.7168,1.72,1.7225,1.725,1.726,1.7257,1.7257,1.7264,1.7264,1.726,1.7263,1.719,1.7255,1.7255,1.7254,1.7254,1.7254,1.7025,1.7045,1.7062,1.7087,1.71,1.7117,1.7136,1.7146,1.7168,1.7194,1.7196,1.7224,1.7243,1.7275,1.7287,1.731,1.7303,1.7313,1.7315,1.7317,1.7319,1.7257,1.7315,1.7315,1.7314,1.7314,1.7314,0,1.7079,1.7091,1.7113,1.7138,1.7157,1.7152,1.7171,1.7188,1.7213,1.723,1.7251,1.7282,1.7307,1.732,1.7345,1.7361,1.736,1.7368,1.7367,1.7369,1.7324,1.7316,1.7368,1.7368,1.7368,1.7368,1.7368,1.7368,1.711,1.7143,1.7147,1.7187,1.7198,1.7227,1.7238,1.7254,1.7267,1.7302,1.7323,1.7331,1.7347,1.7373,1.7396,1.74,1.7409,1.7417,1.742,1.7378,1.7372,1.7367,1.7359,1.7419,1.742,1.7463,1.7463,1.7464]},{"header":{"parameterUnit":"m.s-1","parameterCategory":1,"la1":30.2991,"la2":30.254,"lo1":-89.0895,"lo2":-89.0444,"dy":0.0017,"dx":0.0017,"nx":28,"ny":28,"refTime":"2026-02-03T09:00:00:Z","depth":0,"parameterNumber":3,"parameterNumberName":"V-component_of_WINDS"},"data":[0,0,0,0,0,0,0,0,0,0,0,0,0,0,0,0,0,0,0,0,0,0,0,0,0,0,0,0,0,0,0,0,0,0,0,0,0,0,0,0,0,0,0,0,0,0,0,0,0,0,0,0,0,0,0,0,0,0,2.7375,2.7376,0,2.7428,2.7429,2.743,2.7421,2.7421,2.742,2.7419,2.7474,2.7476,2.7478,0,0,0,0,0,0,0,0,0,0,0,0,0,2.7269,2.7271,2.7375,2.7376,2.7377,2.7428,2.7429,2.743,2.7422,2.742,2.7419,2.7418,2.7473,2.7476,2.7479,0,0,0,0,0,0,0,0,0,0,0,0,0,2.7318,2.7272,2.7375,2.7379,2.738,2.7428,2.7429,2.743,2.7422,2.742,2.7419,2.7418,2.7472,2.7476,2.7479,2.7528,0,0,2.749,2.7491,0,0,0,0,0,0,0,0,2.7315,2.7322,2.7378,2.7379,2.738,2.7417,2.7412,2.7463,2.7422,2.7406,2.7419,2.7417,2.7456,2.7461,2.7474,2.753,2.7532,2.749,2.7492,2.7493,2.7494,0,0,0,0,0,0,0,2.7312,2.732,2.7396,2.7378,2.738,2.7378,2.7384,2.7421,2.7438,2.7407,2.7407,2.7413,2.7456,2.747,2.7475,2.7533,2.749,2.7493,2.7495,2.7496,2.7635,2.7636,0,0,0,0,0,0,2.7307,2.7317,2.7395,2.7398,2.7343,2.7381,2.7388,2.7406,2.7437,2.7441,2.7414,2.7412,2.7465,2.7471,2.7477,2.7538,2.7493,2.7497,2.7499,2.7633,2.7635,2.7637,0,0,0,0,0,0,2.7305,2.7314,2.7393,2.7357,2.7367,2.7385,2.7406,2.7408,2.7422,2.7443,2.7446,2.7425,2.7464,2.7472,2.7516,2.7539,2.7498,2.7501,2.7631,2.7634,2.7636,2.7658,0,0,0,0,0,0,2.7302,2.7313,2.7331,2.7358,2.7369,2.743,2.7407,2.741,2.7428,2.7426,2.7454,2.7457,2.7464,2.751,2.7519,2.7543,2.7504,2.7629,2.7633,2.7635,2.7656,2.7661,2.7666,0,0,0,0,0,2.7298,2.7335,2.7332,2.7342,2.7392,2.7431,2.7438,2.7444,2.743,2.7449,2.7462,2.7456,2.7535,2.7515,2.7524,2.755,2.7628,2.7632,2.7635,2.7653,2.766,2.7666,0,0,0,0,0,0,2.7311,2.7339,2.7336,2.7382,2.7405,2.743,2.7453,2.7451,2.7477,2.7475,2.7482,2.7488,2.7533,2.7546,2.7523,2.76,2.758,2.7585,2.759,2.7597,2.7602,2.7599,2.7507,0,0,0,0,0,2.7319,2.7348,2.7371,2.741,2.7421,2.7436,2.7453,2.7456,2.7479,2.7489,2.7505,2.7528,2.7559,2.7578,2.7607,2.7657,2.7664,2.768,2.7685,2.7689,2.7695,2.7725,2.7732,2.7649,2.7649,2.7649,0,0,2.7337,2.7355,2.7373,2.7413,2.7431,2.7462,2.7443,2.7476,2.75,2.7494,2.7536,2.7549,2.7576,2.7624,2.7646,2.7636,2.7719,2.7694,2.7697,2.77,2.7729,2.7737,2.7744,2.7651,2.7651,2.765,0,0,2.7384,2.7401,2.7436,2.7454,2.7481,2.7491,2.7499,2.7525,2.7534,2.7577,2.7574,2.7602,2.7653,2.7673,2.7689,2.7747,2.7743,2.7756,2.7784,2.7813,2.782,2.7825,2.7848,2.7856,2.7761,2.7761,2.7761,0,2.7403,2.7449,2.7454,2.7489,2.7507,2.7503,2.754,2.7557,2.7593,2.7606,2.7594,2.766,2.7677,2.7731,2.7745,2.7758,2.777,2.7753,2.7818,2.7824,2.783,2.7851,2.7859,2.7762,2.7762,2.7762,2.7762,0,2.7471,2.7503,2.7528,2.7563,2.7584,2.7619,2.7632,2.7652,2.7654,2.7665,2.771,2.7731,2.7765,2.7778,2.7779,2.7833,2.7826,2.7816,2.7796,2.7839,2.786,2.7868,2.7765,2.7764,2.7764,2.7763,0,0,2.7527,2.7566,2.7576,2.7592,2.7623,2.7648,2.7684,2.7717,2.7736,2.776,2.7792,2.7836,2.7828,2.7847,2.7851,2.7876,2.7923,2.7864,2.7865,2.7876,2.7986,2.7994,2.8003,2.7921,2.7922,2.7924,2.7984,0,2.7579,2.7642,2.765,2.7706,2.7737,2.7735,2.7767,2.7789,2.7801,2.783,2.7843,2.7875,2.786,2.7872,2.7897,2.7912,2.7946,2.7908,2.7952,2.7953,2.7946,2.8014,2.8022,2.8078,2.7992,2.7993,2.7994,0,2.7648,2.7676,2.7736,2.7764,2.7777,2.7805,2.7838,2.7864,2.7891,2.7898,2.792,2.7921,2.796,2.7938,2.7992,2.7966,2.7984,2.7994,2.7997,2.8002,2.7977,2.8023,2.8096,2.8105,2.8006,2.8005,2.8004,0,2.7686,2.7738,2.7781,2.7795,2.7828,2.7849,2.7864,2.7889,2.7909,2.7938,2.7951,2.7984,2.8002,2.8027,2.8038,2.802,2.8093,2.807,2.8101,2.8101,2.8117,2.8116,2.8196,2.8126,2.8126,2.8126,2.8126,0,2.7744,2.7781,2.7799,2.7825,2.7868,2.7876,2.7918,2.7932,2.7955,2.7985,2.7985,2.8014,2.8025,2.8056,2.8065,2.811,2.8117,2.8125,2.8127,2.8126,2.8125,2.8139,2.8136,2.8128,2.8128,2.8127,2.8127,0,2.7793,2.7806,2.7854,2.7882,2.789,2.792,2.7945,2.7972,2.7983,2.8022,2.8032,2.8051,2.8087,2.81,2.8144,2.815,2.8203,2.8201,2.8194,2.8195,2.8226,2.8223,2.8318,2.8332,2.8252,2.8252,2.8253,0,2.783,2.7859,2.7891,2.7911,2.7927,2.796,2.7981,2.7991,2.8013,2.8047,2.807,2.8106,2.8136,2.8195,2.8213,2.8248,2.8248,2.8279,2.8253,2.8252,2.8251,2.825,2.8254,2.8284,2.8285,2.8285,2.8286,0,2.7895,2.79,2.7931,2.7964,2.799,2.8017,2.8043,2.806,2.8074,2.8099,2.8137,2.816,2.8206,2.8243,2.8279,2.8295,2.8294,2.8294,2.8303,2.8303,2.8299,2.8304,2.8209,2.8292,2.8291,2.8291,2.829,2.829,2.794,2.7967,2.7994,2.8029,2.8049,2.8074,2.8102,2.8117,2.8149,2.8187,2.8191,2.8233,2.826,2.8308,2.8327,2.836,2.8351,2.8364,2.8368,2.8371,2.8375,2.8292,2.8366,2.8366,2.8366,2.8366,2.8365,0,2.8006,2.8024,2.8056,2.8093,2.8121,2.8117,2.8146,2.817,2.8206,2.8232,2.8262,2.8307,2.8343,2.8365,2.8402,2.8424,2.8425,2.8434,2.8433,2.8438,2.8379,2.8368,2.8433,2.8433,2.8433,2.8433,2.8433,2.8433,2.8044,2.809,2.8099,2.8155,2.8173,2.8213,2.8231,2.8255,2.8276,2.8326,2.8356,2.837,2.8395,2.8434,2.8468,2.8473,2.8488,2.8498,2.8503,2.8448,2.8441,2.8435,2.8425,2.8501,2.8501,2.856,2.856,2.856]}]]